DAL1559 KSFO-KLAX

Flight info

Callsign DAL1559
Flight time 0h 56m
Altitude 33000
Route WESLA5 SUSEY EBAYE BURGL IRNMN2
Aircraft A319/M-SDE3FGHIRWY/LB1

Departure

Time 2026-04-22 01:27
Airport San Francisco International Airport (KSFO)

Arrival

Time 2026-04-22 02:23
Airport Los Angeles International Airport (KLAX)
Time Latitude Longitude Altitude Speed Heading
2026-04-22 01:13 37.61436 -122.38279 4 ft 0 kts 28°
2026-04-22 01:17 37.61427 -122.38285 22 ft 4 kts 28°
2026-04-22 01:17 37.61405 -122.38300 22 ft 2 kts 28°
2026-04-22 01:17 37.61390 -122.38316 22 ft 4 kts 95°
2026-04-22 01:18 37.61399 -122.38347 23 ft 4 kts 118°
2026-04-22 01:18 37.61400 -122.38349 23 ft 4 kts 117°
2026-04-22 01:18 37.61387 -122.38318 22 ft 4 kts 117°
2026-04-22 01:18 37.61380 -122.38300 22 ft 0 kts 117°
2026-04-22 01:20 37.61379 -122.38299 22 ft 1 kts 117°
2026-04-22 01:20 37.61364 -122.38262 22 ft 9 kts 117°
2026-04-22 01:20 37.61372 -122.38162 23 ft 17 kts 41°
2026-04-22 01:21 37.61382 -122.38029 22 ft 18 kts 120°
2026-04-22 01:21 37.61320 -122.37887 22 ft 19 kts 117°
2026-04-22 01:21 37.61293 -122.37734 23 ft 19 kts 76°
2026-04-22 01:21 37.61382 -122.37610 22 ft 22 kts 29°
2026-04-22 01:22 37.61515 -122.37523 23 ft 22 kts 27°
2026-04-22 01:22 37.61618 -122.37454 23 ft 5 kts 28°
2026-04-22 01:22 37.61648 -122.37392 22 ft 17 kts 78°
2026-04-22 01:22 37.61579 -122.37175 24 ft 31 kts 118°
2026-04-22 01:23 37.61477 -122.36942 25 ft 30 kts 126°
2026-04-22 01:23 37.61347 -122.36738 22 ft 30 kts 118°
2026-04-22 01:23 37.61252 -122.36505 23 ft 30 kts 118°
2026-04-22 01:23 37.61154 -122.36275 23 ft 30 kts 118°
2026-04-22 01:24 37.61077 -122.36091 22 ft 18 kts 119°
2026-04-22 01:24 37.61049 -122.35988 22 ft 12 kts 81°
2026-04-22 01:24 37.61095 -122.35907 24 ft 8 kts 36°
2026-04-22 01:24 37.61152 -122.35883 22 ft 9 kts
2026-04-22 01:25 37.61196 -122.35903 24 ft 4 kts 321°
2026-04-22 01:25 37.61198 -122.35906 24 ft 0 kts 314°
2026-04-22 01:25 37.61200 -122.35910 24 ft 2 kts 309°
2026-04-22 01:25 37.61204 -122.35919 23 ft 0 kts 300°
2026-04-22 01:26 37.61205 -122.35921 22 ft 1 kts 300°
2026-04-22 01:26 37.61207 -122.35925 22 ft 0 kts 300°
2026-04-22 01:26 37.61234 -122.35987 24 ft 33 kts 297°
2026-04-22 01:27 37.61469 -122.36551 22 ft 108 kts 297°
2026-04-22 01:27 37.61915 -122.37612 108 ft 156 kts 296°
2026-04-22 01:27 37.62435 -122.38809 826 ft 156 kts 297°
2026-04-22 01:27 37.62979 -122.40013 1545 ft 161 kts 297°
2026-04-22 01:28 37.63571 -122.41229 2266 ft 165 kts 299°
2026-04-22 01:28 37.64174 -122.42451 3079 ft 161 kts 297°
2026-04-22 01:28 37.64720 -122.43718 3664 ft 173 kts 294°
2026-04-22 01:28 37.65308 -122.45158 4032 ft 197 kts 294°
2026-04-22 01:29 37.65980 -122.46793 4497 ft 222 kts 295°
2026-04-22 01:29 37.66702 -122.48569 5309 ft 234 kts 291°
2026-04-22 01:29 37.66862 -122.50656 5947 ft 250 kts 255°
2026-04-22 01:29 37.65912 -122.52503 6838 ft 260 kts 219°
2026-04-22 01:30 37.64211 -122.53320 7772 ft 272 kts 185°
2026-04-22 01:30 37.62317 -122.52946 8801 ft 279 kts 168°
2026-04-22 01:30 37.60443 -122.52237 9853 ft 283 kts 165°
2026-04-22 01:30 37.58538 -122.51431 10492 ft 299 kts 165°
2026-04-22 01:31 37.56504 -122.50560 11003 ft 317 kts 165°
2026-04-22 01:31 37.54390 -122.49666 11814 ft 323 kts 165°
2026-04-22 01:31 37.52242 -122.48773 12693 ft 327 kts 166°
2026-04-22 01:31 37.50092 -122.47763 13556 ft 335 kts 157°
2026-04-22 01:32 37.48114 -122.46150 14372 ft 344 kts 143°
2026-04-22 01:32 37.46435 -122.44013 15154 ft 351 kts 136°
2026-04-22 01:32 37.44770 -122.41733 15954 ft 356 kts 136°
2026-04-22 01:32 37.43076 -122.39418 16715 ft 361 kts 136°
2026-04-22 01:33 37.41356 -122.37077 17340 ft 368 kts 136°
2026-04-22 01:33 37.39601 -122.34692 18089 ft 374 kts 136°
2026-04-22 01:33 37.37831 -122.32291 18869 ft 375 kts 137°
2026-04-22 01:33 37.36045 -122.29870 19477 ft 381 kts 137°
2026-04-22 01:34 37.34224 -122.27401 19995 ft 388 kts 137°
2026-04-22 01:34 37.32371 -122.24889 20527 ft 395 kts 137°
2026-04-22 01:34 37.30484 -122.22332 21060 ft 402 kts 138°
2026-04-22 01:34 37.28560 -122.19730 21529 ft 410 kts 139°
2026-04-22 01:35 37.26601 -122.17090 21804 ft 424 kts 139°
2026-04-22 01:35 37.24567 -122.14357 22241 ft 432 kts 139°
2026-04-22 01:35 37.22494 -122.11566 22724 ft 440 kts 139°
2026-04-22 01:35 37.20392 -122.08735 23203 ft 447 kts 140°
2026-04-22 01:36 37.18258 -122.05860 23766 ft 450 kts 139°
2026-04-22 01:36 37.16127 -122.02983 24337 ft 452 kts 139°
2026-04-22 01:36 37.13979 -122.00086 24769 ft 456 kts 140°
2026-04-22 01:36 37.11794 -121.97146 25043 ft 465 kts 141°
2026-04-22 01:37 37.09572 -121.94163 25387 ft 471 kts 141°
2026-04-22 01:37 37.07328 -121.91155 25795 ft 475 kts 141°
2026-04-22 01:37 37.05065 -121.88123 26224 ft 478 kts 141°
2026-04-22 01:37 37.02786 -121.85068 26702 ft 481 kts 141°
2026-04-22 01:38 37.00494 -121.81997 27120 ft 484 kts 141°
2026-04-22 01:38 36.98183 -121.78908 27435 ft 489 kts 141°
2026-04-22 01:38 36.95853 -121.75798 27894 ft 491 kts 141°
2026-04-22 01:38 36.93511 -121.72675 28321 ft 494 kts 141°
2026-04-22 01:39 36.91184 -121.69573 28729 ft 497 kts 141°
2026-04-22 01:39 36.88815 -121.66421 29137 ft 499 kts 141°
2026-04-22 01:39 36.86431 -121.63252 29540 ft 503 kts 141°
2026-04-22 01:39 36.84028 -121.60061 29881 ft 505 kts 142°
2026-04-22 01:40 36.81619 -121.56862 30324 ft 506 kts 141°
2026-04-22 01:40 36.79202 -121.53653 30683 ft 508 kts 141°
2026-04-22 01:40 36.76774 -121.50429 31056 ft 510 kts 141°
2026-04-22 01:40 36.74347 -121.47207 31445 ft 510 kts 141°
2026-04-22 01:41 36.71901 -121.43970 31788 ft 512 kts 141°
2026-04-22 01:41 36.69450 -121.40736 32089 ft 513 kts 141°
2026-04-22 01:41 36.66994 -121.37506 32445 ft 514 kts 141°
2026-04-22 01:41 36.64534 -121.34274 32830 ft 514 kts 141°
2026-04-22 01:42 36.62080 -121.31041 33041 ft 513 kts 141°
2026-04-22 01:42 36.59646 -121.27838 33090 ft 519 kts 141°
2026-04-22 01:42 36.54572 -121.21185 33068 ft 530 kts 141°
2026-04-22 01:43 36.49537 -121.14571 33072 ft 530 kts 141°
2026-04-22 01:43 36.44472 -121.07936 33075 ft 529 kts 141°
2026-04-22 01:44 36.39470 -121.01190 33080 ft 532 kts 139°
2026-04-22 01:44 36.34655 -120.94168 33091 ft 534 kts 137°
2026-04-22 01:45 36.29884 -120.87117 33091 ft 533 kts 138°
2026-04-22 01:45 36.25050 -120.80141 33079 ft 532 kts 139°
2026-04-22 01:46 36.20193 -120.73259 33050 ft 530 kts 139°
2026-04-22 01:46 36.15348 -120.66391 33075 ft 530 kts 139°
2026-04-22 01:47 36.10516 -120.59505 33069 ft 530 kts 139°
2026-04-22 01:47 36.05690 -120.52632 33087 ft 529 kts 138°
2026-04-22 01:48 36.00858 -120.45784 33096 ft 528 kts 138°
2026-04-22 01:48 35.96027 -120.38956 33109 ft 527 kts 139°
2026-04-22 01:49 35.91232 -120.32194 33065 ft 526 kts 138°
2026-04-22 01:49 35.86213 -120.25766 33081 ft 511 kts 150°
2026-04-22 01:50 35.80327 -120.21111 33078 ft 501 kts 158°
2026-04-22 01:50 35.74386 -120.16635 33065 ft 500 kts 157°
2026-04-22 01:51 35.68449 -120.12165 33078 ft 500 kts 157°
2026-04-22 01:51 35.62518 -120.07703 33097 ft 499 kts 157°
2026-04-22 01:52 35.56725 -120.03308 33079 ft 475 kts 157°
2026-04-22 01:52 35.51455 -119.98382 33096 ft 490 kts 136°
2026-04-22 01:53 35.47401 -119.91559 33090 ft 496 kts 132°
2026-04-22 01:53 35.43426 -119.84641 33086 ft 496 kts 132°
2026-04-22 01:54 35.39476 -119.77717 33081 ft 495 kts 132°
2026-04-22 01:54 35.35536 -119.70886 33060 ft 489 kts 137°
2026-04-22 01:55 35.33134 -119.68051 33055 ft 472 kts 153°
2026-04-22 01:55 35.30368 -119.66054 33053 ft 453 kts 166°
2026-04-22 01:55 35.24543 -119.63237 33009 ft 450 kts 168°
2026-04-22 01:56 35.18663 -119.60467 33067 ft 454 kts 168°
2026-04-22 01:56 35.12861 -119.57715 32885 ft 444 kts 168°
2026-04-22 01:57 35.09999 -119.56348 32370 ft 440 kts 168°
2026-04-22 01:57 35.07156 -119.54993 31853 ft 437 kts 168°
2026-04-22 01:57 35.04338 -119.53658 31342 ft 432 kts 169°
2026-04-22 01:57 35.01547 -119.52341 30846 ft 428 kts 169°
2026-04-22 01:58 34.99704 -119.51474 30527 ft 426 kts 169°
2026-04-22 01:58 34.96950 -119.50178 30012 ft 423 kts 169°
2026-04-22 01:58 34.94211 -119.48888 29512 ft 419 kts 169°
2026-04-22 01:58 34.91537 -119.47444 29037 ft 424 kts 161°
2026-04-22 01:59 34.89055 -119.45440 28585 ft 431 kts 153°
2026-04-22 01:59 34.86648 -119.43282 28122 ft 429 kts 153°
2026-04-22 01:59 34.84255 -119.41128 27679 ft 425 kts 153°
2026-04-22 01:59 34.81887 -119.38996 27240 ft 423 kts 153°
2026-04-22 02:00 34.79526 -119.36871 26790 ft 420 kts 153°
2026-04-22 02:00 34.77180 -119.34772 26338 ft 417 kts 153°
2026-04-22 02:00 34.74840 -119.32688 25899 ft 415 kts 153°
2026-04-22 02:00 34.72512 -119.30627 25460 ft 413 kts 153°
2026-04-22 02:01 34.70234 -119.28588 25041 ft 414 kts 149°
2026-04-22 02:01 34.68284 -119.25938 24617 ft 428 kts 130°
2026-04-22 02:01 34.66778 -119.22808 24208 ft 430 kts 125°
2026-04-22 02:01 34.65373 -119.19609 23805 ft 427 kts 124°
2026-04-22 02:02 34.63976 -119.16441 23335 ft 422 kts 128°
2026-04-22 02:02 34.62191 -119.13743 22857 ft 400 kts 148°
2026-04-22 02:02 34.59931 -119.12000 22374 ft 373 kts 169°
2026-04-22 02:02 34.57511 -119.11359 21914 ft 344 kts 190°
2026-04-22 02:03 34.55250 -119.11813 21452 ft 321 kts 209°
2026-04-22 02:03 34.53193 -119.12797 21005 ft 317 kts 211°
2026-04-22 02:03 34.51159 -119.13823 20564 ft 315 kts 212°
2026-04-22 02:03 34.49139 -119.14835 20123 ft 314 kts 210°
2026-04-22 02:04 34.44657 -119.14920 19484 ft 348 kts 168°
2026-04-22 02:04 34.42601 -119.13243 19241 ft 371 kts 141°
2026-04-22 02:04 34.41074 -119.10659 19012 ft 380 kts 129°
2026-04-22 02:05 34.39672 -119.07948 18758 ft 377 kts 129°
2026-04-22 02:05 34.38303 -119.05239 18323 ft 378 kts 128°
2026-04-22 02:05 34.36931 -119.02512 17786 ft 379 kts 128°
2026-04-22 02:05 34.35575 -118.99824 17371 ft 377 kts 129°
2026-04-22 02:06 34.34038 -118.97322 16961 ft 363 kts 142°
2026-04-22 02:06 34.32172 -118.95367 16643 ft 349 kts 153°
2026-04-22 02:06 34.30243 -118.93627 16303 ft 344 kts 152°
2026-04-22 02:06 34.28328 -118.91899 16007 ft 340 kts 152°
2026-04-22 02:07 34.26465 -118.90210 15890 ft 330 kts 152°
2026-04-22 02:07 34.24657 -118.88560 15757 ft 321 kts 152°
2026-04-22 02:07 34.22902 -118.86949 15634 ft 313 kts 152°
2026-04-22 02:07 34.21194 -118.85377 15495 ft 306 kts 152°
2026-04-22 02:08 34.19513 -118.83830 15265 ft 302 kts 152°
2026-04-22 02:08 34.17843 -118.82295 15023 ft 300 kts 152°
2026-04-22 02:08 34.16188 -118.80760 14769 ft 300 kts 150°
2026-04-22 02:08 34.14587 -118.79131 14487 ft 301 kts 148°
2026-04-22 02:09 34.13028 -118.77442 14176 ft 301 kts 146°
2026-04-22 02:09 34.11491 -118.75731 13894 ft 300 kts 146°
2026-04-22 02:09 34.09959 -118.74020 13585 ft 299 kts 146°
2026-04-22 02:09 34.08429 -118.72324 13313 ft 297 kts 146°
2026-04-22 02:10 34.06901 -118.70644 12973 ft 297 kts 146°
2026-04-22 02:10 34.05376 -118.68981 12612 ft 295 kts 146°
2026-04-22 02:10 34.03966 -118.67162 12313 ft 302 kts 132°
2026-04-22 02:10 34.03004 -118.64893 12103 ft 307 kts 114°
2026-04-22 02:11 34.02585 -118.62351 11832 ft 311 kts 100°
2026-04-22 02:11 34.02348 -118.59770 11575 ft 307 kts 101°
2026-04-22 02:11 34.02115 -118.57253 11451 ft 298 kts 101°
2026-04-22 02:11 34.01888 -118.54806 11328 ft 290 kts 101°
2026-04-22 02:12 34.01664 -118.52426 11169 ft 283 kts 101°
2026-04-22 02:12 34.01430 -118.50023 10509 ft 298 kts 101°
2026-04-22 02:12 34.01181 -118.47499 9714 ft 315 kts 100°
2026-04-22 02:12 34.01173 -118.44753 8812 ft 333 kts 83°
2026-04-22 02:13 34.01635 -118.41987 7896 ft 338 kts 79°
2026-04-22 02:13 34.02111 -118.39260 7389 ft 325 kts 79°
2026-04-22 02:13 34.02570 -118.36645 6923 ft 313 kts 79°
2026-04-22 02:13 34.02957 -118.34118 6511 ft 299 kts 83°
2026-04-22 02:14 34.03239 -118.31687 6105 ft 287 kts 84°
2026-04-22 02:14 34.03475 -118.29344 5695 ft 276 kts 85°
2026-04-22 02:14 34.03696 -118.27093 5292 ft 265 kts 84°
2026-04-22 02:14 34.03915 -118.24924 4912 ft 256 kts 84°
2026-04-22 02:15 34.04133 -118.22836 4549 ft 246 kts 84°
2026-04-22 02:15 34.04349 -118.20819 4207 ft 239 kts 84°
2026-04-22 02:15 34.04561 -118.18873 3936 ft 230 kts 82°
2026-04-22 02:15 34.04765 -118.16978 3631 ft 224 kts 82°
2026-04-22 02:16 34.04962 -118.15136 3392 ft 218 kts 81°
2026-04-22 02:16 34.04890 -118.13337 3212 ft 215 kts 111°
2026-04-22 02:16 34.04022 -118.11921 3023 ft 210 kts 147°
2026-04-22 02:16 34.02701 -118.11287 2824 ft 202 kts 173°
2026-04-22 02:17 34.01323 -118.11235 2670 ft 196 kts 192°
2026-04-22 02:17 34.00042 -118.11705 2615 ft 190 kts 210°
2026-04-22 02:17 33.98968 -118.12608 2612 ft 187 kts 226°
2026-04-22 02:17 33.98187 -118.13831 2612 ft 184 kts 243°
2026-04-22 02:18 33.97745 -118.15257 2615 ft 181 kts 259°
2026-04-22 02:18 33.97578 -118.16756 2626 ft 180 kts 263°
2026-04-22 02:18 33.97428 -118.18254 2622 ft 179 kts 264°
2026-04-22 02:18 33.97279 -118.19752 2622 ft 180 kts 264°
2026-04-22 02:19 33.97128 -118.21247 2625 ft 178 kts 264°
2026-04-22 02:19 33.96979 -118.22735 2621 ft 180 kts 263°
2026-04-22 02:19 33.96829 -118.24229 2623 ft 179 kts 263°
2026-04-22 02:19 33.96678 -118.25719 2492 ft 178 kts 264°
2026-04-22 02:20 33.96526 -118.27224 2279 ft 178 kts 264°
2026-04-22 02:20 33.96381 -118.28666 2054 ft 175 kts 264°
2026-04-22 02:20 33.96239 -118.30068 1829 ft 163 kts 264°
2026-04-22 02:20 33.96107 -118.31365 1623 ft 146 kts 263°
2026-04-22 02:21 33.95992 -118.32498 1436 ft 128 kts 263°
2026-04-22 02:21 33.95886 -118.33543 1267 ft 124 kts 263°
2026-04-22 02:21 33.95779 -118.34597 1097 ft 123 kts 262°
2026-04-22 02:21 33.95680 -118.35571 942 ft 120 kts 262°
2026-04-22 02:22 33.95578 -118.36572 776 ft 121 kts 263°
2026-04-22 02:22 33.95472 -118.37578 599 ft 120 kts 262°
2026-04-22 02:22 33.95369 -118.38562 419 ft 117 kts 262°
2026-04-22 02:22 33.95275 -118.39545 241 ft 120 kts 263°
2026-04-22 02:23 33.95174 -118.40528 107 ft 115 kts 263°
2026-04-22 02:23 33.95092 -118.41339 95 ft 77 kts 263°
2026-04-22 02:23 33.95046 -118.41798 96 ft 43 kts 263°
2026-04-22 02:23 33.94995 -118.42101 93 ft 29 kts 245°
2026-04-22 02:24 33.94898 -118.42243 95 ft 11 kts 219°
2026-04-22 02:24 33.94887 -118.42253 95 ft 0 kts 216°
2026-04-22 02:24 33.94886 -118.42254 95 ft 1 kts 215°
2026-04-22 02:24 33.94873 -118.42263 95 ft 6 kts 209°
2026-04-22 02:25 33.94804 -118.42283 96 ft 15 kts 187°
2026-04-22 02:25 33.94687 -118.42234 94 ft 20 kts 104°
2026-04-22 02:25 33.94712 -118.41962 94 ft 41 kts 83°
2026-04-22 02:25 33.94743 -118.41629 94 ft 39 kts 83°
2026-04-22 02:26 33.94784 -118.41354 94 ft 29 kts 77°
2026-04-22 02:26 33.94812 -118.41102 95 ft 31 kts 82°
2026-04-22 02:26 33.94838 -118.40847 95 ft 31 kts 83°
2026-04-22 02:26 33.94852 -118.40624 94 ft 18 kts 115°
2026-04-22 02:27 33.94785 -118.40535 95 ft 15 kts 88°
2026-04-22 02:27 33.94764 -118.40456 95 ft 6 kts 185°
2026-04-22 02:27 33.94730 -118.40442 94 ft 4 kts 161°
2026-04-22 02:27 33.94723 -118.40440 95 ft 0 kts 163°